Check out our new BloomSky Weather System.

Active alerts


No alerts


Thunder radar  blitzortung!


Rain radar more information rain snow radar


Visit our other weather sites:

Template documentation
and downloads

And another site



Weather Underground History page Text

Daily Summary for June 22, 2017 Units:  Metric    English   Both
« Previous Day
Next Day »
Daily Weekly Monthly Yearly Custom
  High: Low: Average:
Temperature: -17.8 °C 24 °C 27.1 °C
Dew Point: -17.8 °C 23.3 °C 24.4 °C
Humidity: Humidity % 68 % 86 %
Wind Speed: 0 km/h 0 km/h 5 km/h
Wind Gust: 0 km/h - -
Wind:- - WSW
Pressure: 0 hPa 1000.6 hPa -
Precipitation: 3.56 mm    
Historical Graphs
 
 
Tabular Data for June 22, 2017
Time Temperature Dew Point Pressure Wind Wind Speed Wind Gust Humidity Rainfall Rate (Hourly)
-17.8 °C -17.8 °C 0 hPa Calm     Humidity % 0 mm
00:02 24.5 °C 23.5 °C 1002.6 hPa WNW 3.2 km/h 16.1 km/h 94 % 0 mm
00:07 24.4 °C 23.4 °C 1002.3 hPa NW 11.3 km/h 14.5 km/h 94 % 0 mm
00:12 24.4 °C 23.4 °C 1002.3 hPa NNW 6.4 km/h 16.1 km/h 94 % 0 mm
00:17 24.3 °C 23.4 °C 1002.3 hPa WSW 6.4 km/h 16.1 km/h 95 % 0 mm
00:22 24.3 °C 23.4 °C 1002.3 hPa NW 11.3 km/h 19.3 km/h 95 % 0 mm
00:27 24.3 °C 23.4 °C 1002.3 hPa NNW 6.4 km/h 19.3 km/h 95 % 0 mm
00:32 24.3 °C 23.4 °C 1002.3 hPa NW 9.7 km/h 19.3 km/h 95 % 0.25 mm
00:37 24.2 °C 23.3 °C 1001.9 hPa NNW 4.8 km/h 14.5 km/h 95 % 0.51 mm
00:42 24.2 °C 23.3 °C 1001.9 hPa NW 6.4 km/h 12.9 km/h 95 % 0.51 mm
00:47 24.2 °C 23.5 °C 1001.9 hPa North 4.8 km/h 12.9 km/h 96 % 0.76 mm
00:52 24.2 °C 23.5 °C 1001.9 hPa NNW 4.8 km/h 14.5 km/h 96 % 0.76 mm
00:57 24.2 °C 23.5 °C 1001.9 hPa NW 3.2 km/h 16.1 km/h 96 % 0.76 mm
01:02 24.2 °C 23.5 °C 1001.9 hPa NNW 9.7 km/h 16.1 km/h 96 % 0.76 mm
01:07 24.1 °C 23.4 °C 1001.9 hPa NW 6.4 km/h 16.1 km/h 96 % 0.76 mm
01:12 24.1 °C 23.4 °C 1001.9 hPa NW 4.8 km/h 16.1 km/h 96 % 1.02 mm
01:17 24.1 °C 23.4 °C 1001.9 hPa West 3.2 km/h 16.1 km/h 96 % 1.27 mm
01:22 24.1 °C 23.4 °C 1001.9 hPa WNW 4.8 km/h 14.5 km/h 96 % 1.27 mm
01:27 24.1 °C 23.4 °C 1001.9 hPa NW 11.3 km/h 14.5 km/h 96 % 1.27 mm
01:32 24.1 °C 23.4 °C 1001.6 hPa WNW 11.3 km/h 14.5 km/h 96 % 1.27 mm
01:37 24.1 °C 23.6 °C 1001.6 hPa NNW 4.8 km/h 17.7 km/h 97 % 1.27 mm
01:42 24.1 °C 23.6 °C 1001.6 hPa NNW 4.8 km/h 17.7 km/h 97 % 1.78 mm
01:47 24 °C 23.5 °C 1001.2 hPa NW 3.2 km/h 17.7 km/h 97 % 1.52 mm
01:52 24.1 °C 23.6 °C 1001.2 hPa NW 12.9 km/h 17.7 km/h 97 % 1.78 mm
01:57 24.1 °C 23.6 °C 1001.2 hPa NW 6.4 km/h 19.3 km/h 97 % 1.78 mm
02:03 24.1 °C 23.6 °C 1001.2 hPa NW 12.9 km/h 19.3 km/h 97 % 1.78 mm
02:08 24.1 °C 23.6 °C 1001.2 hPa NNW 9.7 km/h 19.3 km/h 97 % 2.03 mm
02:13 24.1 °C 23.6 °C 1001.2 hPa NNW 8 km/h 20.9 km/h 97 % 1.78 mm
02:18 24.1 °C 23.6 °C 1001.2 hPa NNW 8 km/h 20.9 km/h 97 % 1.78 mm
02:23 24.1 °C 23.6 °C 1001.2 hPa NW 9.7 km/h 20.9 km/h 97 % 1.78 mm
02:28 24.1 °C 23.6 °C 1001.2 hPa NNW 8 km/h 22.5 km/h 97 % 1.52 mm
02:33 24.1 °C 23.6 °C 1001.2 hPa WNW 8 km/h 22.5 km/h 97 % 1.52 mm
02:38 24.1 °C 23.6 °C 1001.2 hPa NW 9.7 km/h 22.5 km/h 97 % 1.27 mm
02:43 24.1 °C 23.6 °C 1000.9 hPa NNW 11.3 km/h 17.7 km/h 97 % 0.76 mm
02:48 24.1 °C 23.6 °C 1000.9 hPa North 8 km/h 22.5 km/h 97 % 0.76 mm
02:53 24.1 °C 23.6 °C 1000.9 hPa NW 6.4 km/h 22.5 km/h 97 % 0.51 mm
02:58 24.1 °C 23.6 °C 1000.9 hPa NNW 9.7 km/h 22.5 km/h 97 % 0.51 mm
03:03 24.1 °C 23.6 °C 1000.6 hPa WNW 9.7 km/h 16.1 km/h 97 % 0.51 mm
03:08 24 °C 23.5 °C 1000.6 hPa NW 4.8 km/h 16.1 km/h 97 % 0.25 mm
03:13 24 °C 23.5 °C 1000.6 hPa WNW 4.8 km/h 16.1 km/h 97 % 0.25 mm
03:16 24 °C 23.5 °C 1000.6 hPa NW 8 km/h 17.7 km/h 97 % 0 mm
03:21 24 °C 23.5 °C 1000.6 hPa North 9.7 km/h 17.7 km/h 97 % 0 mm
03:26 24.1 °C 23.6 °C 1000.6 hPa NW 6.4 km/h 17.7 km/h 97 % 0 mm
03:31 24.1 °C 23.6 °C 1000.6 hPa WNW 11.3 km/h 16.1 km/h 97 % 0 mm
03:32 24.1 °C 23.6 °C 1000.6 hPa NNW 4.8 km/h 16.1 km/h 97 % 0 mm
03:37 24.1 °C 23.6 °C 1000.6 hPa WNW 11.3 km/h 16.1 km/h 97 % 0 mm
03:42 24.1 °C 23.6 °C 1000.6 hPa NW 4.8 km/h 14.5 km/h 97 % 0 mm
03:47 24.1 °C 23.6 °C 1000.6 hPa WNW 8 km/h 14.5 km/h 97 % 0 mm
03:52 24.1 °C 23.6 °C 1000.6 hPa ENE 9.7 km/h 14.5 km/h 97 % 0 mm
03:58 24.1 °C 23.6 °C 1000.6 hPa WNW 8 km/h 17.7 km/h 97 % 0 mm
04:03 24.1 °C 23.6 °C 1000.6 hPa WNW 8 km/h 17.7 km/h 97 % 0 mm
04:08 24.2 °C 23.7 °C 1000.6 hPa NW 8 km/h 17.7 km/h 97 % 0 mm
04:13 24.2 °C 23.7 °C 1000.6 hPa NW 8 km/h 17.7 km/h 97 % 0 mm
04:18 24.2 °C 23.7 °C 1000.6 hPa NW 9.7 km/h 16.1 km/h 97 % 0 mm
04:23 24.2 °C 23.7 °C 1000.6 hPa NW 11.3 km/h 14.5 km/h 97 % 0 mm
04:28 24.2 °C 23.7 °C 1000.6 hPa NW 4.8 km/h 12.9 km/h 97 % 0 mm
04:33 24.2 °C 23.7 °C 1000.6 hPa NNW 4.8 km/h 12.9 km/h 97 % 0 mm
04:38 24.2 °C 23.7 °C 1000.6 hPa NW 6.4 km/h 12.9 km/h 97 % 0 mm
04:43 24.3 °C 23.8 °C 1000.6 hPa NW 3.2 km/h 12.9 km/h 97 % 0 mm
04:48 24.3 °C 23.8 °C 1000.6 hPa NW 3.2 km/h 12.9 km/h 97 % 0 mm
04:53 24.2 °C 23.7 °C 1000.6 hPa NW 4.8 km/h 11.3 km/h 97 % 0 mm
04:58 24.2 °C 23.7 °C 1000.6 hPa Calm   9.7 km/h 97 % 0 mm
05:03 24.2 °C 23.7 °C 1000.6 hPa West 6.4 km/h 9.7 km/h 97 % 0 mm
05:08 24.2 °C 23.7 °C 1000.6 hPa NNW 6.4 km/h 9.7 km/h 97 % 0 mm
05:13 24.2 °C 23.7 °C 1000.6 hPa NW 4.8 km/h 9.7 km/h 97 % 0 mm
05:18 24.2 °C 23.7 °C 1000.6 hPa WSW 1.6 km/h 9.7 km/h 97 % 0 mm
05:23 24.2 °C 23.7 °C 1000.6 hPa NNW 6.4 km/h 9.7 km/h 97 % 0 mm
05:28 24.2 °C 23.7 °C 1000.6 hPa NNW 8 km/h 9.7 km/h 97 % 0 mm
05:33 24.2 °C 23.7 °C 1000.6 hPa North 1.6 km/h 8 km/h 97 % 0 mm
05:38 24.1 °C 23.6 °C 1000.6 hPa NW 3.2 km/h 8 km/h 97 % 0 mm
05:43 24.1 °C 23.6 °C 1000.6 hPa Calm   9.7 km/h 97 % 0 mm
05:48 24.1 °C 23.6 °C 1000.6 hPa NW 1.6 km/h 9.7 km/h 97 % 0 mm
05:53 24.1 °C 23.6 °C 1000.6 hPa Calm   9.7 km/h 97 % 0 mm
05:58 24.1 °C 23.6 °C 1000.6 hPa Calm   9.7 km/h 97 % 0 mm
06:03 24.1 °C 23.6 °C 1000.6 hPa WSW 1.6 km/h 9.7 km/h 97 % 0 mm
06:08 24.1 °C 23.6 °C 1000.9 hPa West 6.4 km/h 9.7 km/h 97 % 0 mm
06:13 24 °C 23.5 °C 1000.9 hPa NE 3.2 km/h 9.7 km/h 97 % 0 mm
06:18 24 °C 23.5 °C 1000.9 hPa WNW 4.8 km/h 9.7 km/h 97 % 0 mm
06:23 24 °C 23.5 °C 1000.9 hPa Calm   9.7 km/h 97 % 0 mm
06:28 24.1 °C 23.6 °C 1000.9 hPa WNW 8 km/h 8 km/h 97 % 0 mm
06:33 24.1 °C 23.6 °C 1000.9 hPa Calm   11.3 km/h 97 % 0 mm
06:38 24.1 °C 23.6 °C 1001.2 hPa WNW 1.6 km/h 11.3 km/h 97 % 0 mm
06:43 24.1 °C 23.6 °C 1001.2 hPa NNW 1.6 km/h 11.3 km/h 97 % 0 mm
06:48 24.1 °C 23.6 °C 1001.2 hPa SW 4.8 km/h 9.7 km/h 97 % 0 mm
06:53 24.1 °C 23.6 °C 1001.2 hPa NNW 1.6 km/h 11.3 km/h 97 % 0 mm
06:58 24.1 °C 23.6 °C 1001.2 hPa NNE 3.2 km/h 11.3 km/h 97 % 0 mm
07:04 24.1 °C 23.6 °C 1001.6 hPa WNW 4.8 km/h 11.3 km/h 97 % 0 mm
07:09 24.2 °C 23.7 °C 1001.6 hPa SW 1.6 km/h 8 km/h 97 % 0 mm
07:13 24.2 °C 23.7 °C 1001.9 hPa West 4.8 km/h 9.7 km/h 97 % 0.25 mm
07:18 24.2 °C 23.7 °C 1001.9 hPa NNE 3.2 km/h 9.7 km/h 97 % 0.25 mm
07:23 24.2 °C 23.7 °C 1001.9 hPa Calm   9.7 km/h 97 % 0.25 mm
07:28 24.2 °C 23.7 °C 1001.9 hPa NW 6.4 km/h 11.3 km/h 97 % 0.51 mm
07:34 24.2 °C 23.7 °C 1002.3 hPa West 1.6 km/h 11.3 km/h 97 % 0.51 mm
07:39 24.2 °C 23.7 °C 1002.3 hPa Calm   11.3 km/h 97 % 0.51 mm
07:44 24.2 °C 23.7 °C 1002.3 hPa Calm   9.7 km/h 97 % 0.51 mm
07:49 24.2 °C 23.7 °C 1002.3 hPa West 6.4 km/h 9.7 km/h 97 % 0.51 mm
07:54 24.2 °C 23.7 °C 1002.6 hPa NW 8 km/h 11.3 km/h 97 % 0.51 mm
07:59 24.2 °C 23.7 °C 1002.6 hPa North 3.2 km/h 11.3 km/h 97 % 0.51 mm
08:04 24.2 °C 23.7 °C 1002.6 hPa West 3.2 km/h 11.3 km/h 97 % 0.51 mm
08:09 24.2 °C 23.7 °C 1002.6 hPa NW 3.2 km/h 11.3 km/h 97 % 0.51 mm
08:14 24.3 °C 23.8 °C 1002.6 hPa West 1.6 km/h 9.7 km/h 97 % 0.25 mm
08:19 24.3 °C 23.8 °C 1002.6 hPa WSW 1.6 km/h 9.7 km/h 97 % 0.25 mm
08:24 24.3 °C 23.8 °C 1002.6 hPa West 4.8 km/h 9.7 km/h 97 % 0.25 mm
08:29 24.4 °C 23.9 °C 1002.9 hPa NNW 3.2 km/h 8 km/h 97 % 0 mm
08:34 24.4 °C 23.9 °C 1002.9 hPa WNW 1.6 km/h 9.7 km/h 97 % 0 mm
08:39 24.4 °C 23.9 °C 1002.9 hPa Calm   9.7 km/h 97 % 0 mm
08:44 24.5 °C 24 °C 1002.9 hPa SE 1.6 km/h 9.7 km/h 97 % 0 mm
08:49 24.6 °C 24.1 °C 1002.9 hPa West 1.6 km/h 9.7 km/h 97 % 0 mm
08:54 24.6 °C 24.1 °C 1003.3 hPa Calm   4.8 km/h 97 % 0 mm
08:59 24.6 °C 24.1 °C 1003.3 hPa Calm   4.8 km/h 97 % 0 mm
09:04 24.6 °C 24.1 °C 1003.3 hPa South 1.6 km/h 4.8 km/h 97 % 0 mm
09:09 24.6 °C 24.1 °C 1003.3 hPa WSW 3.2 km/h 4.8 km/h 97 % 0 mm
09:14 24.6 °C 23.9 °C 1003.3 hPa Calm   8 km/h 96 % 0 mm
09:19 24.6 °C 24.1 °C 1003.6 hPa SW 1.6 km/h 8 km/h 97 % 0 mm
09:24 24.6 °C 23.9 °C 1003.6 hPa Calm   8 km/h 96 % 0 mm
09:29 24.6 °C 23.9 °C 1003.6 hPa SW 8 km/h 8 km/h 96 % 0 mm
09:34 24.6 °C 23.9 °C 1003.6 hPa SSW 1.6 km/h 8 km/h 96 % 0 mm
09:39 24.7 °C 24 °C 1003.6 hPa WSW 3.2 km/h 8 km/h 96 % 0 mm
09:44 24.7 °C 24 °C 1003.6 hPa NW 1.6 km/h 8 km/h 96 % 0 mm
09:49 24.8 °C 24.1 °C 1003.6 hPa NNW 3.2 km/h 8 km/h 96 % 0 mm
09:54 25 °C 24.3 °C 1003.6 hPa WNW 4.8 km/h 8 km/h 96 % 0 mm
09:59 25.1 °C 24.4 °C 1003.6 hPa WSW 6.4 km/h 6.4 km/h 96 % 0 mm
10:04 25.2 °C 24.5 °C 1003.6 hPa SSW 4.8 km/h 8 km/h 96 % 0 mm
10:09 25.2 °C 24.3 °C 1003.6 hPa Calm   8 km/h 95 % 0 mm
10:14 25.2 °C 24.3 °C 1003.9 hPa Calm   8 km/h 95 % 0 mm
10:19 25.3 °C 24.4 °C 1003.9 hPa WNW 3.2 km/h 8 km/h 95 % 0 mm
10:24 25.4 °C 24.5 °C 1003.6 hPa SE 1.6 km/h 8 km/h 95 % 0 mm
10:29 25.6 °C 24.7 °C 1003.6 hPa WSW 1.6 km/h 8 km/h 95 % 0 mm
10:34 25.7 °C 24.7 °C 1003.6 hPa SW 3.2 km/h 8 km/h 94 % 0 mm
10:39 26 °C 25 °C 1003.6 hPa ESE 4.8 km/h 12.9 km/h 94 % 0 mm
10:44 26.1 °C 24.9 °C 1003.9 hPa NW 1.6 km/h 12.9 km/h 93 % 0 mm
10:49 26.2 °C 24.8 °C 1003.9 hPa SW 4.8 km/h 12.9 km/h 92 % 0 mm
10:54 26.3 °C 24.9 °C 1003.9 hPa SSW 6.4 km/h 11.3 km/h 92 % 0 mm
10:59 26.4 °C 24.8 °C 1003.9 hPa Calm   11.3 km/h 91 % 0 mm
11:04 26.5 °C 24.9 °C 1004.3 hPa ESE 3.2 km/h 11.3 km/h 91 % 0 mm
11:09 26.4 °C 24.6 °C 1004.3 hPa Calm   9.7 km/h 90 % 0 mm
11:14 26.4 °C 24.6 °C 1004.3 hPa Calm   9.7 km/h 90 % 0 mm
11:19 26.3 °C 24.5 °C 1004.6 hPa SW 4.8 km/h 8 km/h 90 % 0 mm
11:24 26.3 °C 24.7 °C 1004.6 hPa WNW 1.6 km/h 11.3 km/h 91 % 0 mm
11:30 26.3 °C 24.7 °C 1004.6 hPa SW 1.6 km/h 11.3 km/h 91 % 0 mm
11:35 26.3 °C 24.5 °C 1004.6 hPa South 4.8 km/h 12.9 km/h 90 % 0 mm
11:40 26.3 °C 24.5 °C 1004.6 hPa South 1.6 km/h 12.9 km/h 90 % 0 mm
11:45 26.3 °C 24.5 °C 1004.6 hPa SSW 3.2 km/h 12.9 km/h 90 % 0 mm
11:50 26.3 °C 24.5 °C 1004.6 hPa SSE 1.6 km/h 11.3 km/h 90 % 0 mm
11:55 26.3 °C 24.5 °C 1004.6 hPa SW 1.6 km/h 9.7 km/h 90 % 0 mm
12:00 26.3 °C 24.7 °C 1004.6 hPa Calm   8 km/h 91 % 0 mm
12:05 26.5 °C 24.9 °C 1004.6 hPa SW 3.2 km/h 8 km/h 91 % 0 mm
12:10 26.8 °C 25.2 °C 1004.6 hPa WSW 3.2 km/h 12.9 km/h 91 % 0 mm
12:15 27.1 °C 25.1 °C 1004.6 hPa Calm   12.9 km/h 89 % 0 mm
12:20 27.2 °C 25 °C 1005 hPa West 3.2 km/h 12.9 km/h 88 % 0 mm
12:25 27.2 °C 25 °C 1005 hPa South 4.8 km/h 12.9 km/h 88 % 0 mm
12:30 27.3 °C 24.9 °C 1005 hPa SW 8 km/h 14.5 km/h 87 % 0 mm
12:35 27.4 °C 25 °C 1005 hPa NW 9.7 km/h 14.5 km/h 87 % 0 mm
12:40 27.7 °C 25.5 °C 1005 hPa SSW 8 km/h 14.5 km/h 88 % 0 mm
12:45 28 °C 25.4 °C 1004.6 hPa NW 9.7 km/h 14.5 km/h 86 % 0 mm
12:50 28.2 °C 25.4 °C 1004.6 hPa West 4.8 km/h 14.5 km/h 85 % 0 mm
12:55 28.3 °C 25.1 °C 1004.6 hPa SSW 1.6 km/h 14.5 km/h 83 % 0 mm
13:00 28.6 °C 25.2 °C 1004.6 hPa SSW 1.6 km/h 17.7 km/h 82 % 0 mm
13:05 28.8 °C 25.6 °C 1004.6 hPa South 4.8 km/h 19.3 km/h 83 % 0 mm
13:10 28.9 °C 25.3 °C 1004.6 hPa SSW 6.4 km/h 19.3 km/h 81 % 0 mm
13:15 28.6 °C 25 °C 1005 hPa NW 4.8 km/h 19.3 km/h 81 % 0 mm
13:20 28.4 °C 25 °C 1004.6 hPa SSW 6.4 km/h 14.5 km/h 82 % 0 mm
13:21 28.4 °C 24.8 °C 1004.6 hPa NNW 1.6 km/h 14.5 km/h 81 % 0 mm
13:26 28.5 °C 25.1 °C 1004.6 hPa SW 3.2 km/h 14.5 km/h 82 % 0 mm
13:31 28.7 °C 25.1 °C 1005 hPa SW 4.8 km/h 14.5 km/h 81 % 0 mm
13:36 28.8 °C 25.2 °C 1005 hPa WNW 4.8 km/h 12.9 km/h 81 % 0 mm
13:41 29 °C 25.4 °C 1005 hPa WSW 4.8 km/h 12.9 km/h 81 % 0 mm
13:46 29.1 °C 25.3 °C 1005 hPa West 3.2 km/h 12.9 km/h 80 % 0 mm
13:51 29.2 °C 25.2 °C 1005 hPa NNW 9.7 km/h 12.9 km/h 79 % 0 mm
13:56 29.2 °C 25.2 °C 1005 hPa NW 6.4 km/h 12.9 km/h 79 % 0 mm
14:01 29.3 °C 25.1 °C 1005 hPa SW 4.8 km/h 12.9 km/h 78 % 0 mm
14:06 29.7 °C 25.4 °C 1004.6 hPa WSW 3.2 km/h 14.5 km/h 78 % 0 mm
14:11 30.1 °C 26.1 °C 1004.6 hPa SSE 3.2 km/h 19.3 km/h 79 % 0 mm
14:16 30.4 °C 25.7 °C 1004.6 hPa SW 4.8 km/h 20.9 km/h 76 % 0 mm
14:21 30.6 °C 25.7 °C 1004.6 hPa SSW 11.3 km/h 20.9 km/h 75 % 0 mm
14:26 30.7 °C 25.5 °C 1004.6 hPa West 4.8 km/h 20.9 km/h 74 % 0 mm
14:31 30.7 °C 25.3 °C 1004.6 hPa SW 4.8 km/h 19.3 km/h 73 % 0 mm
14:36 30.4 °C 25 °C 1004.6 hPa SW 3.2 km/h 19.3 km/h 73 % 0 mm
14:41 30.8 °C 25.6 °C 1004.6 hPa WNW 3.2 km/h 16.1 km/h 74 % 0 mm
14:46 30.9 °C 25.5 °C 1004.6 hPa WNW 3.2 km/h 16.1 km/h 73 % 0 mm
14:51 30.6 °C 25 °C 1004.3 hPa South 6.4 km/h 14.5 km/h 72 % 0 mm
14:56 30.5 °C 25.3 °C 1004.3 hPa WNW 1.6 km/h 14.5 km/h 74 % 0 mm
15:01 30.4 °C 25.2 °C 1004.3 hPa WNW 8 km/h 14.5 km/h 74 % 0 mm
15:06 30.4 °C 25 °C 1004.3 hPa SW 6.4 km/h 12.9 km/h 73 % 0 mm
15:11 30.8 °C 25.6 °C 1004.3 hPa West 1.6 km/h 11.3 km/h 74 % 0 mm
15:16 31.2 °C 25.5 °C 1004.3 hPa WSW 4.8 km/h 12.9 km/h 72 % 0 mm
15:21 31.3 °C 25.4 °C 1004.3 hPa SW 1.6 km/h 14.5 km/h 71 % 0 mm
15:22 31.3 °C 25.9 °C 1004.3 hPa SSW 1.6 km/h 14.5 km/h 73 % 0 mm
15:27 31.3 °C 25.2 °C 1003.9 hPa South 4.8 km/h 14.5 km/h 70 % 0 mm
15:32 31.6 °C 25.9 °C 1003.9 hPa South 3.2 km/h 14.5 km/h 72 % 0 mm
15:37 32.1 °C 25.4 °C 1003.9 hPa SSW 1.6 km/h 14.5 km/h 68 % 0 mm
15:42 32.2 °C 25.8 °C 1003.9 hPa West 1.6 km/h 14.5 km/h 69 % 0 mm
15:47 32.4 °C 25.7 °C 1003.9 hPa NW 4.8 km/h 14.5 km/h 68 % 0 mm
15:52 32.1 °C 25.4 °C 1003.9 hPa SSE 1.6 km/h 14.5 km/h 68 % 0 mm
15:53 32.1 °C 25.7 °C 1003.9 hPa NNW 4.8 km/h 14.5 km/h 69 % 0 mm
15:58 32.1 °C 25.4 °C 1003.9 hPa SSW 3.2 km/h 14.5 km/h 68 % 0 mm
16:03 31.6 °C 25.5 °C 1003.9 hPa WSW 6.4 km/h 16.1 km/h 70 % 0 mm
16:08 31.1 °C 25.5 °C 1003.9 hPa Calm   16.1 km/h 72 % 0 mm
16:13 31 °C 25.4 °C 1003.9 hPa South 1.6 km/h 16.1 km/h 72 % 0 mm
16:18 30.8 °C 24.9 °C 1003.9 hPa SSW 4.8 km/h 16.1 km/h 71 % 0 mm
16:23 31.1 °C 25.5 °C 1003.9 hPa WSW 4.8 km/h 16.1 km/h 72 % 0 mm
16:28 31.6 °C 25.5 °C 1003.9 hPa SW 4.8 km/h 16.1 km/h 70 % 0 mm
16:33 31.7 °C 25.3 °C 1003.9 hPa SW 4.8 km/h 14.5 km/h 69 % 0 mm
16:38 31.6 °C 25.2 °C 1003.9 hPa SSW 1.6 km/h 12.9 km/h 69 % 0 mm
16:43 31.4 °C 25.3 °C 1003.9 hPa South 3.2 km/h 12.9 km/h 70 % 0 mm
16:48 31.3 °C 25.4 °C 1003.9 hPa SW 8 km/h 12.9 km/h 71 % 0 mm
16:53 31.3 °C 25.4 °C 1003.9 hPa South 14.5 km/h 14.5 km/h 71 % 0 mm
16:58 31.4 °C 25.7 °C 1003.9 hPa SSW 6.4 km/h 16.1 km/h 72 % 0 mm
17:03 31.6 °C 25.9 °C 1003.9 hPa SW 9.7 km/h 16.1 km/h 72 % 0 mm
17:08 31.6 °C 25.5 °C 1003.9 hPa SW 4.8 km/h 16.1 km/h 70 % 0 mm
17:13 31.4 °C 25 °C 1003.9 hPa South 12.9 km/h 12.9 km/h 69 % 0 mm
17:18 31.2 °C 25.3 °C 1003.9 hPa SW 3.2 km/h 19.3 km/h 71 % 0 mm
17:23 31.1 °C 25.2 °C 1003.9 hPa SSW 1.6 km/h 19.3 km/h 71 % 0 mm
17:28 31 °C 25.4 °C 1003.9 hPa SSW 6.4 km/h 19.3 km/h 72 % 0 mm
17:33 30.8 °C 24.9 °C 1003.9 hPa South 4.8 km/h 11.3 km/h 71 % 0 mm
17:38 30.8 °C 25.4 °C 1003.9 hPa South 6.4 km/h 14.5 km/h 73 % 0 mm
17:43 30.8 °C 25.4 °C 1003.9 hPa South 1.6 km/h 14.5 km/h 73 % 0 mm
17:48 30.8 °C 25.2 °C 1003.9 hPa SSW 3.2 km/h 14.5 km/h 72 % 0 mm
17:53 30.9 °C 25.5 °C 1003.9 hPa SW 4.8 km/h 11.3 km/h 73 % 0 mm
17:58 30.9 °C 25.3 °C 1003.9 hPa Calm   11.3 km/h 72 % 0 mm
18:03 31.1 °C 25.5 °C 1003.9 hPa South 6.4 km/h 8 km/h 72 % 0 mm
18:08 31.1 °C 25.5 °C 1003.9 hPa South 9.7 km/h 11.3 km/h 72 % 0 mm
18:13 30.8 °C 25.2 °C 1003.9 hPa SSE 4.8 km/h 14.5 km/h 72 % 0 mm
18:18 30.8 °C 25.6 °C 1003.9 hPa SSW 4.8 km/h 14.5 km/h 74 % 0 mm
18:23 30.8 °C 25.2 °C 1003.9 hPa SSW 3.2 km/h 14.5 km/h 72 % 0 mm
18:28 30.8 °C 25.2 °C 1003.9 hPa SSE 8 km/h 12.9 km/h 72 % 0 mm
18:33 30.6 °C 25 °C 1003.9 hPa SSW 4.8 km/h 14.5 km/h 72 % 0 mm
18:38 30.6 °C 25.2 °C 1003.9 hPa South 4.8 km/h 14.5 km/h 73 % 0 mm
18:43 30.8 °C 25.2 °C 1003.9 hPa SSW 4.8 km/h 14.5 km/h 72 % 0 mm
18:48 30.9 °C 25 °C 1003.9 hPa SSW 3.2 km/h 12.9 km/h 71 % 0 mm
18:53 30.9 °C 24.8 °C 1003.9 hPa SSW 6.4 km/h 12.9 km/h 70 % 0 mm
18:58 30.9 °C 24.8 °C 1003.9 hPa SSW 8 km/h 12.9 km/h 70 % 0 mm
19:03 30.8 °C 24.4 °C 1003.9 hPa SSE 6.4 km/h 12.9 km/h 69 % 0 mm
19:08 30.6 °C 24.5 °C 1003.9 hPa SSW 1.6 km/h 9.7 km/h 70 % 0 mm
19:13 30.6 °C 24.5 °C 1003.9 hPa South 4.8 km/h 9.7 km/h 70 % 0 mm
19:18 30.6 °C 24.5 °C 1003.9 hPa SSE 6.4 km/h 9.7 km/h 70 % 0 mm
19:23 30.5 °C 24.4 °C 1003.9 hPa South 3.2 km/h 9.7 km/h 70 % 0 mm
19:28 30.4 °C 24.5 °C 1004.3 hPa Calm   6.4 km/h 71 % 0 mm
19:33 30.3 °C 24.4 °C 1004.3 hPa South 1.6 km/h 6.4 km/h 71 % 0 mm
19:38 30.3 °C 24.4 °C 1004.3 hPa South 1.6 km/h 6.4 km/h 71 % 0 mm
19:43 30.3 °C 24.7 °C 1004.3 hPa SSE 3.2 km/h 6.4 km/h 72 % 0 mm
19:48 30.3 °C 24.4 °C 1004.6 hPa SSE 3.2 km/h 4.8 km/h 71 % 0 mm
19:53 30.2 °C 24.6 °C 1004.3 hPa South 3.2 km/h 6.4 km/h 72 % 0 mm
19:58 30.2 °C 24.4 °C 1004.6 hPa South 3.2 km/h 6.4 km/h 71 % 0 mm
20:03 30.1 °C 24.5 °C 1004.6 hPa SE 3.2 km/h 6.4 km/h 72 % 0 mm
20:08 30.1 °C 24.5 °C 1004.6 hPa South 4.8 km/h 11.3 km/h 72 % 0 mm
20:13 30.1 °C 24.5 °C 1004.6 hPa South 9.7 km/h 11.3 km/h 72 % 0 mm
20:18 30.1 °C 24.5 °C 1004.6 hPa SE 4.8 km/h 12.9 km/h 72 % 0 mm
20:23 30.1 °C 24.5 °C 1004.6 hPa SSW 6.4 km/h 12.9 km/h 72 % 0 mm
20:28 30.1 °C 24.7 °C 1005 hPa SSE 6.4 km/h 12.9 km/h 73 % 0 mm
20:33 30.1 °C 24.7 °C 1005 hPa SSE 4.8 km/h 9.7 km/h 73 % 0 mm
20:38 30.1 °C 24.7 °C 1005 hPa SE 12.9 km/h 12.9 km/h 73 % 0 mm
20:43 30.1 °C 24.7 °C 1004.6 hPa South 4.8 km/h 12.9 km/h 73 % 0 mm
20:48 30 °C 24.6 °C 1005 hPa SE 3.2 km/h 12.9 km/h 73 % 0 mm
20:53 29.9 °C 24.8 °C 1005 hPa South 3.2 km/h 12.9 km/h 74 % 0 mm
20:58 29.8 °C 24.7 °C 1005 hPa SSW 3.2 km/h 12.9 km/h 74 % 0 mm
21:03 29.8 °C 24.7 °C 1005 hPa SSW 6.4 km/h 12.9 km/h 74 % 0 mm
21:08 29.7 °C 24.8 °C 1005 hPa SSE 6.4 km/h 12.9 km/h 75 % 0 mm
21:13 29.6 °C 24.7 °C 1005 hPa South 4.8 km/h 11.3 km/h 75 % 0 mm
21:18 29.5 °C 24.8 °C 1005 hPa South 8 km/h 11.3 km/h 76 % 0 mm
21:24 29.4 °C 24.7 °C 1005 hPa SSW 3.2 km/h 14.5 km/h 76 % 0 mm
21:29 29.3 °C 24.8 °C 1005 hPa South 4.8 km/h 14.5 km/h 77 % 0 mm
21:34 29.2 °C 24.7 °C 1005 hPa South 4.8 km/h 14.5 km/h 77 % 0 mm
21:39 29.2 °C 25 °C 1005 hPa SE 6.4 km/h 9.7 km/h 78 % 0 mm
21:44 29.1 °C 25.1 °C 1005.3 hPa South 4.8 km/h 14.5 km/h 79 % 0 mm
21:49 29.1 °C 25.3 °C 1005.3 hPa SSW 6.4 km/h 14.5 km/h 80 % 0 mm
21:54 29 °C 25.4 °C 1005.3 hPa South 8 km/h 14.5 km/h 81 % 0 mm
21:59 28.9 °C 25.3 °C 1005.3 hPa SSW 3.2 km/h 14.5 km/h 81 % 0 mm
22:04 28.9 °C 25.5 °C 1005.6 hPa SSW 6.4 km/h 14.5 km/h 82 % 0 mm
22:09 28.8 °C 25.4 °C 1005.6 hPa SE 12.9 km/h 16.1 km/h 82 % 0 mm
22:14 28.8 °C 25.6 °C 1005.6 hPa South 11.3 km/h 16.1 km/h 83 % 0 mm
22:19 28.8 °C 25.6 °C 1005.6 hPa SSE 8 km/h 16.1 km/h 83 % 0 mm
22:24 28.7 °C 25.5 °C 1005.6 hPa South 8 km/h 14.5 km/h 83 % 0 mm
22:29 28.7 °C 25.5 °C 1005.6 hPa SSE 8 km/h 12.9 km/h 83 % 0 mm
22:34 28.6 °C 25.6 °C 1005.6 hPa SSE 11.3 km/h 12.9 km/h 84 % 0 mm
22:39 28.6 °C 25.6 °C 1005.6 hPa SSE 6.4 km/h 14.5 km/h 84 % 0 mm
22:44 28.6 °C 25.6 °C 1005.6 hPa ESE 12.9 km/h 16.1 km/h 84 % 0 mm
22:49 28.5 °C 25.5 °C 1006 hPa SSE 9.7 km/h 16.1 km/h 84 % 0 mm
22:54 28.4 °C 25.4 °C 1006 hPa South 8 km/h 17.7 km/h 84 % 0 mm
22:59 28.4 °C 25.6 °C 1006.3 hPa South 6.4 km/h 17.7 km/h 85 % 0 mm
23:04 28.4 °C 25.6 °C 1006.3 hPa South 6.4 km/h 17.7 km/h 85 % 0 mm
23:09 28.3 °C 25.5 °C 1006.3 hPa SSE 4.8 km/h 12.9 km/h 85 % 0 mm
23:14 28.3 °C 25.7 °C 1006.3 hPa SSE 8 km/h 12.9 km/h 86 % 0 mm
23:19 28.3 °C 25.7 °C 1006.3 hPa South 6.4 km/h 12.9 km/h 86 % 0 mm
23:25 28.3 °C 25.7 °C 1006.3 hPa SSE 6.4 km/h 12.9 km/h 86 % 0 mm
23:30 28.2 °C 25.8 °C 1006.3 hPa South 6.4 km/h 12.9 km/h 87 % 0 mm
23:35 28.2 °C 25.8 °C 1006.3 hPa SE 8 km/h 17.7 km/h 87 % 0 mm
23:40 28.2 °C 25.8 °C 1006.3 hPa SSW 11.3 km/h 19.3 km/h 87 % 0 mm
23:45 28.1 °C 25.7 °C 1006.3 hPa SE 6.4 km/h 19.3 km/h 87 % 0 mm
23:50 28.1 °C 25.9 °C 1006.7 hPa SE 12.9 km/h 20.9 km/h 88 % 0 mm
23:55 28 °C 25.8 °C 1006.7 hPa SSW 6.4 km/h 20.9 km/h 88 % 0 mm
Spring, Texas: Villages of Bridgestone
Compliments of Weather Underground - 3.25 mb

Script developed by  Jim McMurry - jmcmurry@mwt.net Adapted for the template by  Wim van der Kuil - Leuven-Template.eu

You find our weather info also at:

UK Metoffice

WeatherCloud

Weather Underground

Mid-South Weather Network

AWEKAS

Citizen Weather Observer Program (CWOP)

HAMweather, WeatherForYou, PWS Weather

Equipment we use:

Weather-station
Davis Vantage Vue

Weather-program
Meteohub

Weather-server
Debian 7.9 x86 (Guest)

Provider
DreamHost

Davis Vantage Vue

Meteohub

Debian 7.9 x86 (Guest)

DreamHost